BEIDOU-3 M2 (C20)

Last updated on Oct. 29, 2020, 5:53 a.m. UTC

1 43002U 17069B   20301.71815623  .00000077  00000-0  00000-0 0  9995
2 43002  55.2613 131.7884 0006701 323.6171 253.7928  1.86231475 20254
UTC
Height (km)
Latitude
Longitude
Inclination
Orbital Period
UTC large
Height (km)
Speed (km/s)
/
Latitude / Longitude
Inclination (degrees)
Orbital Period (minutes)
Azimuth
Elevation
Range (km)
Doppler Factor
iOS Compass Heading
iOS Angle

Next 30 passes for location: Hong Kong

Rise time Rise Azimuth (degrees) Set time Set Azimuth (degrees) Duration Max altitude (degrees)

No matching passes for this satellites